When you browse on this site, cookies collect data to enhance your experience and personalize the content and advertising you see.
Visit our Privacy Policy to learn more. By continuing to use the site, you agree to this use of cookies and data.
  • In United Kingdom
  • List of Countries
  • For 7 days
  • Water Temperature
  • Satellite Maps
  • Weather Map
  • Weather Widgets
  • user-avatar
    Login

    Hourly Weather Huancavelica

    Today, 17 July, Wednesday

    Time Temperature Precipitation Wind Pressure Humidity
    00:00 +4°C° 0.1 mm 2 mps 464 mmHg 93%
    01:00 +4°C° 0 mm 2 mps 464 mmHg 92%
    02:00 +4°C° 0.1 mm 2 mps 464 mmHg 92%
    03:00 +4°C° 0.1 mm 1 mps 464 mmHg 92%
    04:00 +4°C° 0.1 mm 1 mps 463 mmHg 92%
    05:00 +4°C° 0 mm 1 mps 463 mmHg 91%
    06:00 +4°C° 0 mm 1 mps 464 mmHg 90%
    07:00 +4°C° 0 mm 1 mps 464 mmHg 90%
    08:00 +5°C° 0.1 mm 1 mps 465 mmHg 83%
    09:00 +6°C° 0.1 mm 1 mps 466 mmHg 77%
    10:00 +6°C° 0.1 mm 2 mps 466 mmHg 71%
    11:00 +7°C° 0.3 mm 2 mps 467 mmHg 67%
    12:00 +8°C° 0.3 mm 2 mps 467 mmHg 64%
    13:00 +9°C° 0.3 mm 3 mps 468 mmHg 61%
    14:00 +9°C° 0.6 mm 2 mps 467 mmHg 64%
    15:00 +8°C° 0.6 mm 2 mps 466 mmHg 67%
    16:00 +8°C° 0.6 mm 2 mps 466 mmHg 70%
    17:00 +7°C° 0.5 mm 2 mps 465 mmHg 76%
    18:00 +7°C° 0.5 mm 1 mps 465 mmHg 82%
    19:00 +6°C° 0.5 mm 1 mps 465 mmHg 89%
    20:00 +6°C° 0.4 mm 1 mps 465 mmHg 91%
    21:00 +5°C° 0.4 mm 1 mps 465 mmHg 93%
    22:00 +5°C° 0.4 mm 1 mps 465 mmHg 95%
    23:00 +5°C° 0.4 mm 1 mps 465 mmHg 95%

    Tomorrow, 18 July, Thursday

    Time Temperature Precipitation Wind Pressure Humidity
    00:00 +5°C° 0.4 mm 1 mps 465 mmHg 94%
    01:00 +5°C° 0.4 mm 1 mps 464 mmHg 94%
    02:00 +5°C° 0.1 mm 1 mps 464 mmHg 94%
    03:00 +5°C° 0.1 mm 1 mps 464 mmHg 93%
    04:00 +4°C° 0.1 mm 1 mps 464 mmHg 93%
    05:00 +4°C° 0 mm 1 mps 464 mmHg 93%
    06:00 +4°C° 0 mm 1 mps 464 mmHg 92%
    07:00 +4°C° 0 mm 1 mps 464 mmHg 92%
    08:00 +5°C° 0 mm 1 mps 465 mmHg 85%
    09:00 +6°C° 0 mm 1 mps 466 mmHg 77%
    10:00 +7°C° 0 mm 2 mps 466 mmHg 70%
    11:00 +8°C° 0.1 mm 2 mps 467 mmHg 65%
    12:00 +8°C° 0.1 mm 2 mps 467 mmHg 60%
    13:00 +9°C° 0.1 mm 2 mps 467 mmHg 56%
    14:00 +9°C° 0.3 mm 2 mps 467 mmHg 56%
    15:00 +9°C° 0.3 mm 2 mps 466 mmHg 57%
    16:00 +9°C° 0.3 mm 2 mps 466 mmHg 58%
    17:00 +9°C° 0.3 mm 1 mps 465 mmHg 67%
    18:00 +7°C° 0.3 mm 1 mps 464 mmHg 77%
    19:00 +6°C° 0.3 mm 1 mps 464 mmHg 87%
    20:00 +5°C° 0.1 mm 1 mps 463 mmHg 90%
    21:00 +5°C° 0.1 mm 1 mps 463 mmHg 93%
    22:00 +4°C° 0.1 mm 1 mps 463 mmHg 95%
    23:00 +4°C° 0 mm 1 mps 463 mmHg 95%

    Day after tomorrow, 19 July, Friday

    Time Temperature Precipitation Wind Pressure Humidity
    00:00 +5°C° 0 mm 1 mps 464 mmHg 94%
    01:00 +5°C° 0 mm 1 mps 464 mmHg 93%
    02:00 +5°C° 0 mm 1 mps 464 mmHg 91%
    03:00 +5°C° 0 mm 1 mps 464 mmHg 89%
    04:00 +5°C° 0 mm 1 mps 463 mmHg 87%
    05:00 +5°C° 0 mm 1 mps 464 mmHg 88%
    06:00 +5°C° 0 mm 1 mps 464 mmHg 88%
    07:00 +5°C° 0 mm 1 mps 464 mmHg 89%
    08:00 +5°C° 0 mm 2 mps 465 mmHg 81%
    09:00 +6°C° 0 mm 2 mps 465 mmHg 74%
    10:00 +7°C° 0 mm 2 mps 466 mmHg 67%
    11:00 +8°C° 0.1 mm 2 mps 466 mmHg 61%
    12:00 +9°C° 0.1 mm 2 mps 467 mmHg 56%
    13:00 +10°C° 0.1 mm 2 mps 467 mmHg 51%
    14:00 +10°C° 0.2 mm 2 mps 467 mmHg 51%
    15:00 +10°C° 0.2 mm 3 mps 466 mmHg 51%
    16:00 +10°C° 0.2 mm 3 mps 466 mmHg 50%
    17:00 +8°C° 0.4 mm 2 mps 465 mmHg 64%
    18:00 +8°C° 0.4 mm 1 mps 464 mmHg 77%
    19:00 +6°C° 0.4 mm 1 mps 463 mmHg 90%
    20:00 +5°C° 0.1 mm 1 mps 463 mmHg 92%
    21:00 +5°C° 0.1 mm 1 mps 463 mmHg 93%
    22:00 +5°C° 0.1 mm 1 mps 464 mmHg 94%
    23:00 +5°C° 0 mm 1 mps 464 mmHg 93%

    20 July, Saturday

    Time Temperature Precipitation Wind Pressure Humidity
    00:00 +5°C° 0 mm 1 mps 464 mmHg 91%
    01:00 +5°C° 0 mm 1 mps 464 mmHg 90%
    02:00 +5°C° 0 mm 1 mps 463 mmHg 89%
    03:00 +5°C° 0 mm 1 mps 463 mmHg 88%
    04:00 +5°C° 0 mm 1 mps 463 mmHg 88%
    05:00 +5°C° 0 mm 1 mps 463 mmHg 89%
    06:00 +5°C° 0 mm 1 mps 463 mmHg 90%
    07:00 +4°C° 0 mm 1 mps 463 mmHg 91%
    08:00 +6°C° 0.1 mm 1 mps 464 mmHg 82%
    09:00 +6°C° 0.1 mm 2 mps 465 mmHg 74%
    10:00 +7°C° 0.1 mm 2 mps 466 mmHg 65%
    11:00 +8°C° 0.1 mm 2 mps 467 mmHg 60%
    12:00 +9°C° 0.1 mm 2 mps 467 mmHg 55%
    13:00 +10°C° 0.1 mm 3 mps 467 mmHg 51%
    14:00 +10°C° 0.5 mm 2 mps 466 mmHg 52%
    15:00 +10°C° 0.5 mm 2 mps 466 mmHg 54%
    16:00 +9°C° 0.5 mm 2 mps 465 mmHg 56%
    17:00 +8°C° 0.4 mm 2 mps 464 mmHg 65%
    18:00 +7°C° 0.4 mm 1 mps 464 mmHg 74%
    19:00 +6°C° 0.4 mm 1 mps 463 mmHg 82%
    20:00 +5°C° 0.1 mm 1 mps 463 mmHg 84%
    21:00 +4°C° 0.1 mm 0 mps 463 mmHg 86%
    22:00 +3°C° 0.1 mm 0 mps 463 mmHg 87%
    23:00 +3°C° 0 mm 0 mps 462 mmHg 89%

    21 July, Sunday

    Time Temperature Precipitation Wind Pressure Humidity
    00:00 +2°C° 0 mm 0 mps 462 mmHg 91%
    01:00 +2°C° 0 mm 0 mps 461 mmHg 93%
    02:00 +2°C° 0 mm 0 mps 461 mmHg 93%
    03:00 +1°C° 0 mm 0 mps 461 mmHg 93%
    04:00 +1°C° 0 mm 0 mps 460 mmHg 93%
    05:00 +2°C° 0 mm 0 mps 461 mmHg 93%
    06:00 +2°C° 0 mm 0 mps 462 mmHg 92%
    07:00 +3°C° 0 mm 0 mps 463 mmHg 91%
    08:00 +5°C° 0 mm 1 mps 464 mmHg 82%
    09:00 +6°C° 0 mm 2 mps 465 mmHg 73%
    10:00 +7°C° 0 mm 2 mps 466 mmHg 63%
    11:00 +8°C° 0 mm 2 mps 466 mmHg 57%
    12:00 +10°C° 0 mm 3 mps 467 mmHg 51%
    13:00 +11°C° 0 mm 3 mps 467 mmHg 46%
    14:00 +12°C° 0.2 mm 2 mps 467 mmHg 45%
    15:00 +12°C° 0.2 mm 2 mps 466 mmHg 45%
    16:00 +12°C° 0.2 mm 2 mps 466 mmHg 45%
    17:00 +9°C° 0.2 mm 2 mps 465 mmHg 58%
    18:00 +8°C° 0.2 mm 1 mps 464 mmHg 70%
    19:00 +6°C° 0.2 mm 1 mps 463 mmHg 83%
    20:00 +5°C° 0 mm 1 mps 463 mmHg 86%
    21:00 +5°C° 0 mm 1 mps 463 mmHg 90%
    22:00 +4°C° 0 mm 1 mps 463 mmHg 93%
    23:00 +4°C° 0 mm 1 mps 463 mmHg 92%

    22 July, Monday

    Time Temperature Precipitation Wind Pressure Humidity
    00:00 +3°C° 0 mm 0 mps 463 mmHg 91%
    01:00 +3°C° 0 mm 0 mps 463 mmHg 89%
    02:00 +3°C° 0 mm 0 mps 462 mmHg 88%
    03:00 +3°C° 0 mm 0 mps 462 mmHg 87%
    04:00 +2°C° 0 mm 0 mps 461 mmHg 86%
    05:00 +3°C° 0 mm 0 mps 462 mmHg 86%
    06:00 +3°C° 0 mm 0 mps 462 mmHg 86%
    07:00 +3°C° 0 mm 0 mps 463 mmHg 85%
    08:00 +6°C° 0 mm 1 mps 464 mmHg 75%
    09:00 +7°C° 0 mm 2 mps 466 mmHg 65%
    10:00 +9°C° 0 mm 2 mps 467 mmHg 55%
    11:00 +10°C° 0 mm 3 mps 467 mmHg 51%
    12:00 +11°C° 0 mm 3 mps 467 mmHg 47%
    13:00 +12°C° 0 mm 3 mps 468 mmHg 43%
    14:00 +11°C° 0.2 mm 3 mps 467 mmHg 45%
    15:00 +11°C° 0.2 mm 3 mps 467 mmHg 47%
    16:00 +11°C° 0.2 mm 3 mps 466 mmHg 49%
    17:00 +9°C° 0.3 mm 2 mps 465 mmHg 59%
    18:00 +8°C° 0.3 mm 1 mps 464 mmHg 69%
    19:00 +6°C° 0.3 mm 1 mps 463 mmHg 79%
    20:00 +5°C° 0 mm 1 mps 463 mmHg 83%
    21:00 +5°C° 0 mm 1 mps 463 mmHg 86%
    22:00 +4°C° 0 mm 1 mps 463 mmHg 89%
    23:00 +4°C° 0 mm 1 mps 462 mmHg 89%
    Show more